Hourly Data Report for September 10, 2012

HALIFAX STANFIELD INT'L A
NOVA SCOTIA

44°52'48.060" N
63°30'00.050" W
145.40 m
8202250
71395
YHZ

Download Data

Hourly Data (September 2012)
Hourly Data Report for September 10, 2012
TIME
LST
Temp Definition
°C
Dew Point Definition
°C
Rel Hum Definition
%
Precip. Amount Definition
mm

Wind Dir Definition
10's deg

Wind Spd Definition
km/h
Visibility Definition
km
Stn Press Definition
kPa
Hmdx Definition


Wind Chill Definition


Weather Definition


00:00 19.9 19.9 100   15 13 0.4 99.07     Fog
01:00 20.3 20.3 100   19 24 1.2 99.04 28   Rain Showers, Fog
02:00 17.3 17.3 100   31 19 3.2 99.01     Moderate Rain Showers, Fog
03:00 17.1 17.1 100   3 13 6.4 98.96     Rain Showers, Fog
04:00 17.2 17.2 100   7 20 8.0 98.81     Rain Showers, Fog
05:00 17.6 17.6 100   12 17 3.2 98.72     Rain Showers, Fog
06:00 17.3 17.3 100   33 28 1.2 98.81     Moderate Rain Showers, Fog
07:00 14.9 14.9 100   35 22 1.6 98.81     Rain Showers, Fog
08:00 14.6 14.6 100   2 15 2.4 98.85     Rain Showers, Fog
09:00 14.6 14.6 100   36 22 2.4 98.85     Rain Showers, Fog
10:00 14.3 14.3 100   36 22 2.4 98.91     Rain, Fog
11:00 14.3 14.3 100   35 22 2.4 98.87     Rain, Fog
12:00 14.4 14.4 100   36 20 3.2 98.78     Rain, Fog
13:00 14.3 14.3 100   1 22 9.7 98.80     Rain, Fog
14:00 14.3 14.3 100   35 22 9.7 98.76     Rain, Fog
15:00 14.1 14.1 100   2 20 9.7 98.81     Rain, Fog
16:00 14.1 14.1 100   34 24 1.2 98.77     Rain, Fog
17:00 13.9 13.9 100   36 13 4.8 98.82     Rain, Fog
18:00 13.7 13.7 100   35 24 3.2 98.82     Moderate Rain, Fog
19:00 13.6 13.6 100   35 24 2.0 98.68     Fog
20:00 13.6 13.6 100   34 22 3.2 98.76     Fog
21:00 13.6 13.6 100   34 30 3.2 98.71     Drizzle, Fog
22:00 13.4 13.4 100   35 30 24.1 98.69     Cloudy
23:00 13.1 12.9 99   34 22 24.1 98.62     Cloudy

Notes on Data Quality.

Legend

  • E = Estimated
  • M = Missing
  • NA = Not Available*
  • [empty] = Indicates an unobserved value
Date modified: